Tracking 28790 objects as of 19-Apr-2024
HD Live streaming from Space Station
objects crossing your sky now

GAOFEN 11 3

Track GAOFEN 11 3 now!
10-day predictions


NORAD ID: 49492
Int'l Code: 2021-107A
Perigee: 499.3 km
Apogee: 504.0 km
Inclination: 97.3 °
Period: 94.5 minutes
Semi major axis: 6872 km
RCS: Unknown
Launch date: November 20, 2021
Source: People's Republic of China (PRC)
Launch site: Taiyaun Space Center, China (TSC)
Your satellite tracking list
Your tracking list is empty




NASA's NSSDC Master Catalog

Two Line Element Set (TLE):
1 49492U 21107A   24109.90222158  .00016134  00000-0  67261-3 0  9994
2 49492  97.3246 167.6049 0003438 293.9245  66.1632 15.23769137134451
Source of the keplerian elements: AFSPC